Regional Weather Roundup
Issued by NWS Newport/Morehead, NC

Current Version | Previous Version | Graphics & Text | Print | Product List | Glossary On
Versions: 1 2 3 4 5 6 7 8 9 10 11 12 13 14 15 16 17 18 19 20 21 22 23 24 25 26 27 28 29 30 31 32 33 34 35 36 37 38 39 40 41 42 43 44 45 46 47 48 49 50
000 ASUS42 KMHX 021013 RWRMHX WEATHER ROUNDUP FOR EASTERN NORTH CAROLINA NATIONAL WEATHER SERVICE NEWPORT/MOREHEAD CITY NC 600 AM EDT WED SEP 02 2015 NOTE: "FAIR" INDICATES FEW OR NO CLOUDS BELOW 12,000 FEET WITH NO SIGNIFICANT WEATHER AND/OR OBSTRUCTIONS TO VISIBILITY NCZ015>017-031-032-045>047-102-103-021100- NORTH COAST CITY SKY/WX TMP DP RH WIND PRES REMARKS EDENTON MOCLDY 68 67 95 CALM 30.05S ELIZABETH CITY FOG 70 69 97 W3 30.04S VSB 1 KITTY HAWK MOSUNNY 74 72 93 CALM 30.04R FOG MANTEO PTCLDY 74 74 99 W3 30.05S $$ NCZ045>047-081-094-103-104-021100- CENTRAL COAST CITY SKY/WX TMP DP RH WIND PRES REMARKS FRISCO PTCLDY 78 74 87 NW6 30.04R SWANQUARTER N/A 72 N/A N/A NW1 30.00S $$ NCZ095-097-098-100-101-021100- SOUTHERN COAST CITY SKY/WX TMP DP RH WIND PRES REMARKS BEAUFORT CLEAR 74 73 97 W6 30.05S CEDAR ISLAND N/A 75 N/A N/A W3 30.09S JACKSONVILLE CLEAR 72 70 93 W3 30.05S FOG PINEY ISLAND SUNNY N/A N/A N/A W5 30.04S WILMINGTON CLEAR 74 72 93 SW5 30.06R $$ NCZ011>013-027>030-043-044-078>080-089-090>093-098-021100- COASTAL PLAIN CITY SKY/WX TMP DP RH WIND PRES REMARKS AHOSKIE CLEAR 66 65 97 CALM 30.05S CLINTON FOG 71 71 100 CALM 30.07R VSB 1/4 ELIZABETHTOWN CLEAR 73 73 99 CALM 30.06S GOLDSBORO CLEAR 70 70 99 CALM 30.04S GREENVILLE FOG 70 68 94 CALM 30.07R VSB 3/4 HAVELOCK CLEAR 73 71 93 W3 30.06S KENANSVILLE N/A 70 69 98 SW3 30.07R FOG KINSTON FOG 69 69 99 CALM 30.06S VSB 3/4 NEW BERN CLEAR 72 71 97 CALM 30.06S RICHLANDS CLOUDY 70 64 83 CALM 30.06R VSB 1/2 ROCKY MOUNT CLEAR 68 67 96 CALM 30.06R FOG WASHINGTON N/A 68 67 98 CALM 30.05S FOG WHITEVILLE CLEAR 73 72 95 CALM 30.06S $$ AMZ130-135-150-152-154-156-158-170-250-252-270-ANZ085-086-088-633-658-670-021100- MARINE OBSERVATIONS STATION/POSITION TIME TEMP WIND PRES WAVE SWELL AIR SEA DIR/SP/G HT/PER HT/PER (UTC) (F) (DEG/KT/KT) (MB) (FT/S) (FT/S) CHESAPEAKE LIGHT 1000 76 270/ 7/ 7 1017.9 64 E VA BEACH 0950 77 78 310/ 6/ 8 1016.8 2/10 2/10 DUCK 0900 77 79 280/ 5/ 6 1016.3 2 E DUCK 0911 80 N/A 1/ 9 OREGON INLET 0900 76 81 290/ 3/ 4 1016.9 13E OREGON INLT 1000 80 N/A 2/ 8 HATTERAS CG 0900 80 82 280/ 9/ 10 1016.9 DIAMOND BUOY 0950 80 83 310/ 10/ 12 1017.3 2/ 9 2/ 9 CAPE LOOKOUT 1000 78 300/ 11/ 12 1017.2 BEAUFORT LAB 0900 76 80 290/ 2/ 6 1016.9 30 SE NEW RVR IN 0908 81 81 290/ 12/ 16 1017.8 30 SE NEW RVR IN 0925 81 N/A 3/ 7 27 SE WRIGHTSVLE 0900 78 81 290/ 10/ 12 N/A 5 SE WRIGHTSVLE 0908 79 82 280/ 10/ 14 1017.6 225 S CAPE HAT 0950 83 84 300/ 10/ 12 1017.1 2/ 9 2/ 9 41 SE CHARLESTON 0950 82 83 290/ 6/ 6 1017.3 2/ 9 2/ 9 $$

USA.gov is the U.S. government's official web portal to all federal, state and local government web resources and services.